AirNav   Everest Fuels
 
 977 users online  

Y30 Pbeaaye Airport
Topinabee, Michigan, USA

GOING TO TOPINABEE?


FAA INFORMATION EFFECTIVE 18 JUNE 2020

Location

FAA Identifier: Y30
Lat/Long: 45-31-52.0390N 084-33-25.1340W
45-31.867317N 084-33.418900W
45.5311219,-84.5569817
(estimated)
Elevation: 690 ft. / 210.3 m (surveyed)
Variation: 06W (1985)
From city: 3 miles NE of TOPINABEE, MI
Time zone: UTC -4 (UTC -5 during Standard Time)
Zip code: 49721

Airport Operations

Airport use: Open to the public
Activation date: 10/1981
Control tower: no
ARTCC: MINNEAPOLIS CENTER
FSS: LANSING FLIGHT SERVICE STATION
NOTAMs facility: LAN (NOTAM-D service available)
Attendance: UNATNDD
Wind indicator: yes
Segmented circle: no

Airport Communications

CTAF: 122.9
WX AWOS-3 at SLH (8 nm N): 118.175 (231-627-4671)
WX ASOS at PLN (10 nm W): 119.025 (231-539-7700)
WX AWOS-3 at MGN (16 nm SW): 119.925 (231-347-5231)

Nearby radio navigation aids

VOR radial/distance  VOR name  Freq  Var
PLNr149/7.5PELLSTON VORTAC111.8006W
GLRr017/31.7GAYLORD VOR/DME109.2006W

 
NDB name  Hdg/Dist  Freq  Var  ID
CHARLEVOIX070/33.039205WCVX -.-. ...- -..-

Airport Services

Parking: tiedowns

Runway Information

Runway 1/19

Dimensions: 2470 x 90 ft. / 753 x 27 m
Surface: turf, in poor condition
RWY SFC ROLLING TERRAIN, VERY ROUGH AND UNEVEN.
Runway edge markings: 01/19 DSPLCD THLDS MKD WITH CONES.
RUNWAY 1  RUNWAY 19
Traffic pattern: leftleft
Displaced threshold: 450 ft.800 ft.
Obstructions: 60 ft. trees, 60 ft. both sides of centerline
APCH RATIO 0:1 AT DSPLCD THLD. 60 FT TREES 60 FT L/R, 25:1 BASED ON STRAIGHT OUT OVR +50 FT TREES 1250 FT DSTC.
70 ft. trees, 55 ft. both sides of centerline
APCH RATIO 0:1 AT DSPLCD THLD. 60 FT TREES 55 FT L/R, 18:1 BASED ON STRAIGHT OUT OVR +95 FT TREES, 1700 FT DSTC.

Airport Ownership and Management from official FAA records

Ownership: Privately-owned
Owner: PEABEAAYE INC.
3299 TRYBAN ROAD
CHEBOYGAN, MI 49721
Phone 231-627-5791
Manager: JERRY SIUDARD
3299 TRYBAN ROAD
CHEBOYGAN, MI 49721
Phone 231-290-6114

Airport Operational Statistics

Aircraft based on the field: 13
Single engine airplanes: 13
    
Aircraft operations: avg 25/month *
50% transient general aviation
50% local general aviation
* for 12-month period ending 31 December 2014

Additional Remarks

TREES ALL QUADRANTS.
DEER & BIRDS INVOF ARPT.
WINTER OPNS SKIS ONLY. NO SNOW REMOVAL.
+60 FT WINDSOCK LCTD AT N END.
FOR CD CTC MINNEAPOLIS ARTCC AT 651-463-5588.

Instrument Procedures

There are no published instrument procedures at Y30.

Some nearby airports with instrument procedures:

KSLH - Cheboygan County Airport (8 nm N)
KPLN - Pellston Regional Airport of Emmet County (10 nm W)
6Y1 - Bois Blanc Island Airport (14 nm N)
KMGN - Harbor Springs Airport (16 nm SW)
KMCD - Mackinac Island Airport (20 nm N)
 
Loc | Ops | Rwys | IFR | FBO | Links
Com | Nav | Svcs | Stats | Notes
Area around Y30 (Pbeaaye Airport)
 
Road maps at: MapQuest Bing Google
 
Aerial photo
No photo
 
Sectional chart

 
Airport distance calculator
Flying to Pbeaaye Airport? Find the distance to fly.

From to Y30

Sunrise and sunset
Times for 12-Jul-2020
 Local
(UTC-4)
 Zulu
(UTC)
Morning civil twilight05:2609:26
Sunrise06:0310:03
Sunset21:2501:25
Evening civil twilight22:0102:01

Current date and time
Zulu (UTC)  12-Jul-2020 16:04:46
Local (UTC-4)  12-Jul-2020 12:04:46
 
METAR
KSLH 
7nm N 
121555Z AUTO 31011G18KT 10SM SCT025 OVC075 20/14 A2984 RMK AO2 T02030137
KPLN 
10nm W 
121554Z AUTO 32012G20KT 10SM SCT025 21/13 A2987 RMK AO2 SLP113 T02110133
KMGN 
16nm W 
121555Z AUTO 33009G14KT 10SM SCT060 20/12 A2986 RMK AO2 T02050120
KMCD 
19nm N 
121555Z AUTO 35009G14KT 10SM SCT027 OVC065 19/14 A2986 RMK AO2 T01870135
TAF
KPLN 
10nm W 
121120Z 1212/1312 34006KT P6SM SCT050 FM121700 33010G18KT P6SM BKN045 FM122200 33010G19KT P6SM SCT045 FM130000 34009KT P6SM SCT045
NOTAMs
Click for the latest NOTAMs
NOTAMs are issued by the DoD/FAA and will open in a separate window not controlled by AirNav.

 

 
 

Would you like to see your business listed on this page?

 If your business provides an interesting product or service to pilots, flight crews, aircraft, or users of the Pbeaaye Airport, you should consider listing it here.  To start the listing process, click on the button below
 
Add a business
 

Other Pages about Pbeaaye Airport

Page from the Michigan Airport Directory (PDF)
 
Update a link
 
Copyright © AirNav, LLC. All rights reserved. Privacy Policy  Contact